Location: New York
(40.7140°N, 74.0060°W)
Time: 07:13:57
(UTC-05:00)

ISS - Visible Passes

Search period start: 24 November 2014 00:00
Search period end: 04 December 2014 00:00
Orbit: 408 x 417 km, 51.6° (Epoch: 24 November)

Date Brightness Start Highest point End Pass type
(mag) Time Alt. Az. Time Alt. Az. Time Alt. Az.
24 Nov -0.4 04:32:00 13° NE 04:32:00 13° NE 04:32:48 10° NE visible
24 Nov -2.8 06:04:49 11° NW 06:07:55 54° NNE 06:11:10 10° ESE visible
25 Nov -2.0 05:17:10 28° N 05:18:04 33° NNE 05:21:06 10° E visible
26 Nov -0.6 04:29:32 18° ENE 04:29:32 18° ENE 04:30:50 10° ENE visible
26 Nov -3.1 06:02:21 15° WNW 06:04:56 56° SW 06:08:10 10° SE visible
27 Nov -3.4 05:14:43 66° NNW 05:15:05 79° NE 05:18:23 10° ESE visible
28 Nov -0.6 04:27:06 20° E 04:27:06 20° E 04:28:18 10° ESE visible
28 Nov -1.6 05:59:56 15° W 06:01:33 20° SW 06:04:03 10° S visible
29 Nov -2.2 05:12:20 33° SSW 05:12:20 33° SSW 05:14:46 10° SSE visible
30 Nov -0.1 04:24:46 12° SE 04:24:46 12° SE 04:25:01 10° SE visible
